Torna al catalogo

YUNYAO-1 16

AttivoMeteoSSO
NORAD 60746·PAYLOAD·🇨🇳 China
Questo nome del satellite non è ancora stato confermato da fonti ufficiali.

Lanciato Aug 29, 2024 da Yellow Sea Launch Area

Loading…

Prossimi Passaggi (prossime 24 ore)

TLE

AggiornatoSource: Space-Track

Epoca: Sep 14, 2026, 15:47 UTC

1 60746U 24153B   26257.65789883  .00010981  00000-0  32206-3 0  9999
2 60746  97.6904  40.7641 0009194 196.8483 163.2455 15.35326041113678

Traccia YUNYAO-1 16 in tempo reale con AllMySat

Download on the App Store